Retour au catalogue

IRIS-F3

ActifCommunicationsSSO
NORAD 62619·PAYLOAD·🇹🇼 Taiwan

Lancé Jan 14, 2025 depuis Vandenberg Space Force Base

Loading…

Prochains Passages (prochaines 24 heures)

TLE

FraisSource: Space-Track

Époque: Sep 14, 2026, 12:46 UTC

1 62619U 25009L   26257.53215318  .00007013  00000-0  25757-3 0  9990
2 62619  97.3995 337.7252 0006346  23.2270 336.9255 15.28224108 92469

Suivez IRIS-F3 en temps réel avec AllMySat

Download on the App Store